Find Yaogan 30 hao 06 zu 01 xing

NORAD ID: 45460 Int'l Des: 2020-021 Owner: ZLZB Country: CN Constellation: yaogan operational
LEOCIRCULAR

Current View

Loading 3D Globe...

About Yaogan 30 hao 06 zu 01 xing

Description loading...

Upcoming Passes

Passes for default location (London). Set your location on the main map for personalized predictions.

Altitude History

Loading altitude history...

Two-Line Element Set

1 45460U 20021A 26149.82755285 .00004054 00000-0 30021-3 0 9990
2 45460 34.9962 322.7764 0004079 233.6239 126.4094 15.02617279337798
Epoch: May 29, 2026 • Age: 14 hours

Current Status

Altitude 560.6 km
Velocity 7.58 km/s
Sub-Earth Point -22.82°S, 144.04°E
Launch Date Mar 24, 2020
Age 6.1 years
Type military

Technical Details

Classification Payload
Mass 500.00 kg
Dry Mass 500.00 kg
Total Mass 500.00 kg
Length 0.50 m
Diameter 0.50 m
Span 1.00 m
Shape Box + 2 Pan
Manufacturer SECM
Phase Status In Orbit
Owner/State ZLZB/CN

Most Searched